Nellis AFB, NV

2:42 PM PDT on March 23, 2017 (GMT -0700)
Nellis Air Force Base

Weather History for KLSV - September, 2012

Change the Weather History Date:

Friday, September 7, 2012

  Actual Average Record
Temperature  
Mean Temperature 90 °F -  
Max Temperature 101 °F 95 °F 104 °F (2008)
Min Temperature 79 °F 70 °F 64 °F (2000)
Cooling Degree Days 25    
Growing Degree Days 40 (Base 50)    
Moisture  
Dew Point 54 °F    
Average Humidity 28    
Maximum Humidity 40    
Minimum Humidity 19    
Precipitation  
Precipitation 0.00 in - - ()
Sea Level Pressure  
Sea Level Pressure 29.85 in    
Wind  
Wind Speed 6 mph (SE)    
Max Wind Speed 12 mph    
Max Gust Speed -    
Visibility 10 miles    
Events      
Averages and records for this station are not official NWS values.
T = Trace of Precipitation, MM = Missing Value Source: NWS Daily Summary

Daily Weather History Graph

Daily Weather History Graph

Search for Another Location

Airport or City:

Trip Planner

Search our weather history database for the weather conditions in past years. The results will help you decide how hot, cold, wet, or windy it might be!

Date:

Astronomy

Sep. 07, 2012 Rise Set
Actual Time 6:16 AM PDT 6:58 PM PDT
Civil Twilight 5:50 AM PDT 7:24 PM PDT
Nautical Twilight 5:20 AM PDT 7:54 PM PDT
Astronomical Twilight 4:48 AM PDT 8:26 PM PDT
Moon 11:10 PM PDT (9/7) 12:59 PM PDT (9/7)
Length of Visible Light 13h 33m
Length of Day
12h 41m
Waning Gibbous, 57% of the Moon is Illuminated
Sep 7
Waning Gibbous
Sep 8
Last Quarter
Sep 15
New
Sep 22
First Quarter
Sep 29
Full

Hourly Weather History & Observations

Time (PDT) Temp. Heat Index Dew Point Humidity Pressure Visibility Wind Dir Wind Speed Gust Speed Precip Events Conditions
12:55 AM 87.8 °F 85.7 °F 53.2 °F 31% 29.79 in 10.0 mi SSW 5.8 mph - N/A   Clear
1:55 AM 86.9 °F 84.8 °F 53.1 °F 31% 29.79 in 10.0 mi SSW 10.4 mph - N/A   Clear
2:55 AM 85.6 °F 83.8 °F 53.2 °F 33% 29.80 in 10.0 mi South 9.2 mph - N/A   Clear
3:55 AM 85.3 °F 83.5 °F 53.1 °F 33% 29.81 in 10.0 mi Variable 3.5 mph - N/A   Clear
4:55 AM 79.7 °F - 53.1 °F 40% 29.85 in 10.0 mi ENE 4.6 mph - N/A   Clear
5:55 AM 80.2 °F - 52.9 °F 39% 29.87 in 10.0 mi NNE 3.5 mph - N/A   Clear
6:55 AM 79.5 °F - 53.1 °F 40% 29.90 in 10.0 mi NNE 5.8 mph - N/A   Partly Cloudy
7:55 AM 84.2 °F 82.8 °F 53.8 °F 35% 29.91 in 10.0 mi Calm Calm - N/A   Clear
8:55 AM 87.8 °F 85.7 °F 53.4 °F 31% 29.91 in 10.0 mi East 5.8 mph - N/A   Clear
9:55 AM 91.6 °F 89.1 °F 53.1 °F 27% 29.92 in 10.0 mi SE 4.6 mph - N/A   Clear
10:55 AM 93.7 °F 91.4 °F 54.5 °F 26% 29.92 in 10.0 mi ENE 3.5 mph - N/A   Clear
11:55 AM 95.7 °F 93.7 °F 54.7 °F 25% 29.89 in 10.0 mi Variable 3.5 mph - N/A   Clear
12:55 PM 97.0 °F 94.6 °F 53.2 °F 23% 29.88 in 10.0 mi Calm Calm - N/A   Clear
1:55 PM 98.8 °F 96.3 °F 53.1 °F 21% 29.85 in 10.0 mi South 3.5 mph - N/A   Clear
2:55 PM 100.2 °F - 51.6 °F 19% 29.83 in 10.0 mi SSW 8.1 mph - N/A   Clear
3:55 PM 101.3 °F - 52.5 °F 19% 29.81 in 10.0 mi Variable 5.8 mph - N/A   Clear
4:55 PM 100.2 °F - 51.6 °F 19% 29.82 in 10.0 mi South 8.1 mph - N/A   Partly Cloudy
5:55 PM 100.0 °F - 51.4 °F 19% 29.82 in 10.0 mi SSW 9.2 mph - N/A   Scattered Clouds
6:55 PM 97.5 °F - 52.0 °F 21% 29.83 in 10.0 mi SSW 8.1 mph - N/A   Partly Cloudy
7:55 PM 96.6 °F - 52.5 °F 23% 29.84 in 10.0 mi Calm Calm - N/A   Clear
8:55 PM 94.3 °F 92.1 °F 54.9 °F 26% 29.85 in 10.0 mi South 5.8 mph - N/A   Clear
9:55 PM 92.7 °F 90.9 °F 55.6 °F 29% 29.86 in 10.0 mi South 5.8 mph - N/A   Clear
10:55 PM 89.8 °F 88.6 °F 57.9 °F 34% 29.88 in 10.0 mi ENE 4.6 mph - N/A   Clear
11:55 PM 88.0 °F 87.1 °F 58.5 °F 37% 29.88 in 10.0 mi NE 11.5 mph - N/A   Clear